Weather observations for the past three days for
Monroe Municipal Airport
Imperial (Metric)
Date Time (cdt) Wind (mph) Vis. (mi.) Weather Sky Cond. Temperature (ºF) Relative Humidity Wind Chill (°F) Heat Index (°F) Pressure Precipitation (in)
Air Dwpt 6 hour altimeter (in) sea level (mb) 1 hr 3 hr 6 hr
Max. Min.
18 14:55 N 7 10.00 Mostly Cloudy SCT050 BKN070 73.4 50.4 44% 30.22 0.0
18 14:35 Calm 10.00 Partly Cloudy SCT065 73 49.6 44% 30.22 0.0
18 14:15 N 5 10.00 Partly Cloudy SCT065 72.5 50.9 47% 30.23 0.0
18 13:55 NE 3 10.00 Partly Cloudy SCT048 SCT065 72.1 49.5 45% 30.23 0.0
18 13:35 N 6 10.00 Partly Cloudy SCT065 72.5 50.4 46% 30.23 0.0
18 13:15 N 5 10.00 Partly Cloudy SCT055 71.2 50.4 48% 30.23 0.0
18 12:55 NE 3 10.00 Mostly Cloudy SCT046 BKN065 69.6 51.8 71.4 57.9 53% 30.24 0.0
18 12:35 E 5 10.00 Mostly Cloudy SCT046 BKN060 70.3 51.1 51% 30.23 0.0
18 12:15 NE 8 G 17 10.00 Partly Cloudy SCT042 SCT060 70 51.4 52% 30.23 0.0
18 11:55 NE 6 10.00 Partly Cloudy SCT040 SCT046 SCT050 71.1 51.1 49% 30.23 0.0
18 11:35 N 5 10.00 Mostly Cloudy SCT038 BKN050 BKN060 68.2 52.5 57% 30.23 0.0
18 11:15 N 6 10.00 Mostly Cloudy SCT036 BKN042 BKN050 70 52.9 55% 30.23 0.0
18 10:55 NE 8 10.00 Partly Cloudy SCT034 SCT044 68.7 53.1 58% 30.23 0.0
18 10:35 N 8 10.00 Partly Cloudy SCT034 67.8 52.7 59% 30.24 0.0
18 10:15 NE 5 10.00 Fair CLR 67.3 52.3 59% 30.23 0.0
18 09:55 N 6 10.00 Fair CLR 67.1 52.7 60% 30.23 0.0
18 09:35 N 9 10.00 Fair CLR 66.2 53.6 64% 30.23 0.0
18 09:15 NE 5 10.00 Fair CLR 64.9 54.1 68% 30.23 0.0
18 08:55 N 7 10.00 Fair CLR 63.9 53.2 69% 30.23 0.0
18 08:35 N 3 10.00 Fair CLR 63 54 73% 30.23 0.0
18 08:15 Calm 10.00 Fair CLR 62.1 54.5 76% 30.23 0.0
18 07:55 NE 7 10.00 Fair CLR 60.8 54.9 81% 30.23 0.0
18 07:35 N 6 10.00 Fair CLR 59.9 54.3 82% 30.23 0.0
18 07:00 N 3 10.00 Fair CLR 58.1 52.9 83% 30.21 0.0
18 06:35 N 7 10.00 Fair CLR 57 52.3 84% 30.21 0.0
18 06:15 N 5 10.00 Fair CLR 55.4 52 88% 30.2 0.0
18 05:55 N 5 10.00 Fair CLR 55 51.8 89% 30.2 0.0
18 05:35 N 6 10.00 Fair CLR 54.9 51.8 90% 30.2 0.0
18 05:15 N 7 10.00 Fair CLR 54.9 51.8 90% 30.19 0.0
18 04:55 N 7 10.00 Fair CLR 55.4 52 88% 30.2 0.0
18 04:35 N 7 10.00 Fair CLR 55.4 52 88% 30.19 0.0
18 04:15 N 7 10.00 Fair CLR 55.8 52 87% 30.19 0.0
18 03:55 N 8 10.00 Fair CLR 56.3 52.2 86% 30.19 0.0
18 03:35 N 6 10.00 Fair CLR 56.3 52.2 86% 30.19 0.0
18 03:15 N 7 10.00 Fair CLR 56.3 52.2 86% 30.18 0.0
18 02:55 N 7 10.00 Fair CLR 57.6 52.3 83% 30.18 0.0
18 02:35 N 6 10.00 Fair CLR 57.9 52.7 83% 30.18 0.0
18 02:15 N 7 10.00 Fair CLR 58.1 52.9 83% 30.18 0.0
18 01:55 N 8 10.00 Fair CLR 58.3 53.1 83% 30.18 0.0
18 01:35 N 5 10.00 Fair CLR 56.7 53.2 88% 30.17 0.0
18 01:15 N 9 10.00 Fair CLR 57.4 53.1 86% 30.17 0.0
18 00:55 N 7 10.00 Fair CLR 59 53.1 69.8 59 81% 30.17 0.0
18 00:35 N 7 10.00 Fair CLR 59.4 52.9 79% 30.17 0.0
18 00:15 N 9 G 17 10.00 Fair CLR 59.9 53.1 78% 30.16 0.0
17 23:55 N 10 G 18 10.00 Fair CLR 60.3 52.7 76% 30.15 0.0
17 23:35 N 10 G 17 10.00 Fair CLR 60.8 52.5 74% 30.14 0.0
17 23:15 N 7 10.00 Fair CLR 61.2 52.3 73% 30.14 0.0
17 22:55 N 7 10.00 Fair CLR 61.9 52.2 71% 30.13 0.0
17 22:35 N 8 10.00 Fair CLR 61.7 52.2 71% 30.13 0.0
17 22:15 N 7 10.00 Fair CLR 61.9 52.2 71% 30.13 0.0
17 21:55 N 7 10.00 Fair CLR 62.6 52 68% 30.13 0.0
17 21:35 N 6 10.00 Fair CLR 62.8 52 68% 30.12 0.0
17 21:15 N 8 10.00 Fair CLR 63 52 68% 30.11 0.0
17 20:55 N 8 10.00 Fair CLR 63.7 51.8 65% 30.11 0.0
17 20:35 N 10 G 20 10.00 Fair CLR 64.6 51.3 62% 30.11 0.0
17 20:15 N 13 G 20 10.00 Partly Cloudy SCT060 65.7 51.1 59% 30.1 0.0
17 19:55 N 10 G 23 10.00 Partly Cloudy SCT060 66.6 50.7 57% 30.1 0.0
17 19:35 N 17 G 28 10.00 Partly Cloudy SCT048 SCT060 68 50.4 53% 30.09 0.0
17 19:15 N 18 G 24 10.00 Mostly Cloudy SCT047 BKN050 69.8 52.7 55% 30.09 0.0
17 18:55 N 16 G 25 10.00 Partly Cloudy SCT050 69.4 54.9 75.7 69.3 60% 30.08 0.0
17 18:35 N 16 G 26 10.00 Partly Cloudy SCT050 71.2 54 55% 30.07 0.0
17 18:15 N 9 10.00 Fair CLR 72.1 52.5 50% 30.07 0.0
17 17:55 N 8 G 20 10.00 Partly Cloudy SCT050 SCT060 71.6 52.7 51% 30.07 0.0
17 17:35 N 9 10.00 Overcast BKN050 OVC070 75 54.1 48% 78 30.06 0.0
17 17:15 N 8 G 17 10.00 Mostly Cloudy SCT050 BKN070 73.6 52.9 48% 30.06 0.0
17 16:55 N 12 G 18 10.00 Fair CLR 73.6 52.7 48% 30.06 0.0
17 16:35 N 10 G 17 10.00 Fair CLR 72.9 52 48% 30.06 0.0
17 16:15 N 10 10.00 Partly Cloudy SCT050 SCT065 73.2 53.2 50% 30.06 0.0
17 15:55 N 7 G 17 10.00 Partly Cloudy SCT075 74.5 52.5 46% 30.06 0.0
17 15:35 N 8 G 16 10.00 Fair CLR 74.7 53.2 47% 30.06 0.0
17 15:15 N 12 10.00 Partly Cloudy SCT050 SCT070 72.5 54.7 54% 30.06 0.0
17 14:55 NW 7 10.00 Mostly Cloudy SCT050 BKN070 73.9 54.3 50% 30.06 0.0
17 14:35 N 9 10.00 Mostly Cloudy SCT050 BKN070 72.7 53.8 52% 30.06 0.0
17 14:15 N 6 10.00 Mostly Cloudy SCT050 BKN070 73.2 52.7 49% 30.06 0.0
17 13:55 N 9 10.00 Mostly Cloudy BKN050 BKN060 73.4 52.9 49% 30.06 0.0
17 13:35 N 10 G 16 10.00 Partly Cloudy SCT050 SCT060 75 53.8 48% 78 30.05 0.0
17 13:15 N 8 10.00 Partly Cloudy SCT050 73.8 51.3 45% 30.05 0.0
17 12:55 NW 9 G 17 10.00 Partly Cloudy SCT048 74.3 53.2 74.5 65.1 48% 30.04 0.0
17 12:35 N 12 G 18 10.00 Fair CLR 74.3 52.9 47% 30.04 0.0
17 12:15 NW 13 G 18 10.00 Partly Cloudy SCT050 73.9 53.8 49% 30.04 0.0
17 11:55 N 12 G 18 10.00 Partly Cloudy SCT055 73.8 53.8 50% 30.04 0.0
17 11:35 N 9 G 16 10.00 Fair CLR 74.1 54.1 50% 30.04 0.0
17 11:15 N 8 10.00 Fair CLR 73.8 54.7 51% 30.03 0.0
17 10:55 N 6 G 22 10.00 Fair CLR 73 55.8 55% 30.03 0.0
17 10:35 N 9 G 16 10.00 Fair CLR 72.5 57.6 60% 30.02 0.0
17 10:15 N 7 10.00 Fair CLR 71.6 58.6 64% 30.02 0.0
17 09:55 N 5 10.00 Fair CLR 71.6 59.4 65% 30.02 0.0
17 09:35 N 7 10.00 Fair CLR 71.1 59.4 67% 30.01 0.0
17 09:15 N 5 10.00 Fair CLR 70.7 60.1 69% 30.01 0.0
17 08:55 N 6 10.00 Fair CLR 69.6 59.5 70% 30 0.0
17 08:20 N 7 10.00 Fair CLR 68.4 59.7 74% 29.99 0.0
17 07:55 N 8 10.00 Fair CLR 66.4 59.7 79% 29.99 0.0
17 07:35 NW 7 10.00 Fair CLR 66.2 59.2 78% 29.99 0.0
17 07:15 NW 7 10.00 Fair CLR 65.7 59 79% 29.99 0.0
17 06:55 NW 8 10.00 Fair CLR 64.9 59.4 68.2 62.8 82% 29.98 0.0
17 06:35 NW 7 10.00 Fair CLR 64.4 59.4 84% 29.98 0.0
17 06:15 NW 8 10.00 Fair CLR 63.5 59.9 88% 29.97 0.0
17 05:55 N 9 10.00 Fair CLR 62.8 59.9 90% 29.97 0.0
17 05:35 NW 12 10.00 Fair CLR 63.5 59.9 88% 29.96 0.0
17 05:15 N 8 10.00 Fair CLR 63.7 59.5 86% 29.96 0.0
17 05:00 N 10 10.00 Fair CLR 63.9 59.9 87% 29.95 0.0
17 04:35 N 10 10.00 Fair CLR 64.4 59.5 84% 29.93 0.0
17 04:15 N 10 10.00 Fair CLR 64.4 59.7 85% 29.93 0.0
17 03:35 N 8 10.00 Fair CLR 64.4 59.9 85% 29.92 0.0
17 03:15 N 10 10.00 Fair CLR 65.3 59.9 83% 29.93 0.0
17 02:55 N 9 10.00 Fair CLR 66 59.9 81% 29.93 0.0
17 02:35 N 10 10.00 Fair CLR 66.2 60.1 81% 29.92 0.0
17 02:15 N 9 10.00 Fair CLR 66.6 59.9 79% 29.93 0.0
17 01:55 N 10 10.00 Fair CLR 66.7 59.9 79% 29.93 0.0
17 01:35 N 10 10.00 Fair CLR 67.1 59.9 78% 29.93 0.0
17 01:15 N 10 10.00 Fair CLR 67.6 59.5 75% 29.93 0.0
17 00:55 N 10 10.00 Fair CLR 68.4 60.1 80.4 68.4 75% 29.93 0.0
17 00:35 N 10 10.00 Fair CLR 68.9 59.9 73% 29.93 0.0
17 00:15 N 8 10.00 Fair CLR 68.9 60.1 74% 29.93 0.0
16 23:55 N 8 10.00 Fair CLR 69.6 60.3 72% 29.93 0.0
16 23:35 N 7 10.00 Fair CLR 69.6 60.8 74% 29.91 0.0
16 23:15 N 8 10.00 Fair CLR 70 61.2 74% 29.9 0.0
16 22:55 N 8 10.00 Fair CLR 70.9 61.2 71% 29.9 0.0
16 22:35 N 10 10.00 Fair CLR 71.2 62.1 73% 29.9 0.0
16 22:15 N 10 10.00 Partly Cloudy SCT110 71.8 62.2 72% 29.89 0.0
16 21:55 N 8 10.00 Mostly Cloudy BKN110 72.5 62.2 70% 29.89 0.0
16 21:35 NW 8 10.00 Fair CLR 72.5 62.6 71% 29.88 0.0
16 21:15 NW 7 10.00 Fair CLR 73 62.6 70% 29.88 0.0
16 20:55 NW 7 10.00 Fair CLR 73.9 62.2 67% 29.88 0.0
16 20:35 NW 6 10.00 Fair CLR 74.8 62.6 66% 29.87 0.0
16 20:15 N 5 10.00 Fair CLR 76.1 63 64% 78 29.86 0.0
16 19:35 NW 3 10.00 Fair CLR 78.8 64.4 61% 81 29.86 0.0
16 19:15 NW 7 10.00 Fair CLR 79.7 63.7 58% 81 29.86 0.0
16 18:55 NW 6 10.00 Partly Cloudy SCT043 80.6 63.9 57% 82 29.86 0.0
16 18:35 NW 6 0.00 NULL NULL 0 0 0% 29.86 0.0
16 18:15 NW 10 G 16 10.00 Mostly Cloudy SCT042 SCT049 BKN055 80.2 64.6 59% 82 29.86 0.0
16 17:55 NW 9 10.00 Fair CLR 82 62.4 52% 83 29.85 0.0
16 17:35 NW 9 10.00 Fair CLR 82.2 63 52% 83 29.84 0.0
16 17:15 NW 8 10.00 Partly Cloudy SCT039 82.4 63 52% 84 29.84 0.0
16 16:55 NW 12 10.00 Partly Cloudy SCT039 SCT050 82.4 64.4 55% 84 29.85 0.0
16 16:35 NW 7 10.00 Partly Cloudy SCT040 SCT049 82 65.8 58% 84 29.86 0.0
16 16:15 NW 8 10.00 Fair CLR 82.8 66.7 59% 85 29.86 0.0
16 15:55 NW 9 10.00 Partly Cloudy SCT037 SCT049 SCT070 83.1 66.2 57% 85 29.86 0.0
16 15:35 NW 5 10.00 Overcast BKN037 BKN047 OVC070 81.3 67.8 64% 84 29.86 0.0
16 15:15 N 7 10.00 Mostly Cloudy SCT034 SCT041 BKN070 81.7 66.7 61% 84 29.86 0.0
16 14:55 NW 5 10.00 Partly Cloudy SCT034 SCT041 SCT080 82.8 67.3 60% 85 29.86 0.0
16 14:35 NW 7 10.00 Mostly Cloudy SCT034 SCT042 BKN070 80.6 66.6 62% 83 29.87 0.0
16 14:15 NW 3 10.00 Mostly Cloudy SCT034 BKN050 BKN060 79 69.3 72% 82 29.86 0.0
16 13:55 N 6 10.00 Overcast SCT030 BKN036 OVC065 78.3 69.1 74% 81 29.86 0.0
16 13:35 S 5 10.00 Overcast BKN028 BKN038 OVC065 79.7 69.8 72% 83 29.85 0.0
16 13:15 S 7 10.00 Overcast BKN026 BKN040 OVC065 79 70 74% 82 29.83 0.0
16 12:55 Calm 10.00 Partly Cloudy SCT026 SCT049 SCT060 80.8 69.1 81.1 69.3 68% 84 29.82 0.0
16 12:35 Calm 10.00 Mostly Cloudy BKN024 BKN029 BKN049 79.2 70.2 74% 82 29.82 0.0
16 12:15 Calm 10.00 Mostly Cloudy SCT024 SCT033 BKN055 81 69.3 68% 84 29.83 0.0
16 11:55 Calm 10.00 Mostly Cloudy SCT028 SCT035 BKN050 79.2 69.6 73% 82 29.83 0.0
16 11:35 Calm 10.00 Partly Cloudy SCT018 SCT028 79 69.1 72% 82 29.83 0.0
16 11:15 Calm 10.00 Mostly Cloudy SCT018 BKN023 78.8 70.3 75% 81 29.83 0.0
16 10:55 N 7 10.00 Overcast SCT014 OVC020 77.5 70.3 79% 79 29.83 0.0
16 10:35 N 7 10.00 Overcast OVC012 75.2 70.3 85% 75 29.82 0.0
16 10:15 N 9 10.00 Overcast OVC008 74.1 70.5 89% 29.82 0.0
16 09:55 N 9 10.00 Overcast OVC006 73.4 70.5 91% 29.81 0.0
16 09:35 N 6 10.00 Overcast OVC004 72.5 70.7 94% 29.81 0.0
16 09:15 N 9 5.00 Fog/Mist OVC004 71.8 70.7 96% 29.81 0.0
16 08:55 NW 5 5.00 Fog/Mist OVC004 71.8 70.7 96% 29.81 0.0
16 08:35 NW 6 5.00 Fog/Mist OVC004 71.8 70.9 97% 29.8 0.0
16 08:15 W 3 2.50 Fog/Mist OVC004 70.9 70.7 99% 29.8 0.0
16 07:55 W 5 4.00 Fog/Mist OVC004 70.7 70.2 98% 29.8 0.0
16 07:15 W 7 5.00 Fog/Mist OVC004 69.8 69.4 99% 29.79 0.0
16 06:55 W 8 7.00 Overcast OVC006 69.3 69.1 69.3 67.6 99% 29.78 0.0
16 06:35 W 8 7.00 Overcast OVC006 69.1 68.9 99% 29.77 0.0
16 06:15 W 7 10.00 Overcast OVC006 68.9 68.5 99% 29.77 0.0
16 05:55 W 9 10.00 Overcast OVC008 68.4 68.2 99% 29.77 0.0
16 05:35 W 10 10.00 Mostly Cloudy SCT012 BKN032 BKN040 68.2 67.8 99% 29.77 0.0
16 05:15 W 12 10.00 Mostly Cloudy BKN012 BKN030 BKN035 68.2 67.6 98% 29.76 0.0
16 04:55 W 12 10.00 Overcast OVC012 68.4 68 99% 29.76 0.0
16 04:35 W 13 10.00 Mostly Cloudy BKN012 68 68 100% 29.76 0.0
16 04:15 W 13 10.00 Fair CLR 68 68 100% 29.76 0.0
16 03:55 SW 14 10.00 Partly Cloudy SCT003 68 68 100% 29.75 0.0
16 03:35 SW 14 7.00 Partly Cloudy SCT003 68 68 100% 29.75 0.0
16 03:15 SW 13 10.00 Partly Cloudy SCT003 68.2 68.2 100% 29.75 0.0
16 02:55 SW 13 7.00 Mostly Cloudy BKN003 BKN026 68.2 68.2 100% 29.76 0.0
16 02:35 SW 16 7.00 Overcast OVC003 68.4 68.4 100% 29.77 0.0
16 02:15 SW 15 10.00 Overcast OVC003 68.4 68.4 100% 29.77 0.0
16 01:55 SW 18 G 23 7.00 Overcast OVC003 68.2 68.2 100% 29.78 0.0
16 01:35 SW 15 7.00 Overcast OVC003 68 68 100% 29.78 0.0
16 01:15 SW 15 10.00 Mostly Cloudy BKN003 68 68 100% 29.77 0.0
16 00:55 SW 13 10.00 Partly Cloudy SCT003 68 68 79.7 68 100% 29.78 0.0 1.01
16 00:35 SW 14 10.00 Fair CLR 68 68 100% 29.77 0.0
16 00:15 SW 9 10.00 Fair CLR 68 68 100% 29.75 0.0
15 23:55 SW 8 10.00 Fair CLR 68 68 100% 29.75 0.0
15 23:35 S 8 10.00 Fair CLR 68 68 100% 29.76 0.0
15 23:15 SW 8 10.00 Fair CLR 68.2 68.2 100% 29.76 0.0
15 22:55 S 7 10.00 Fair CLR 68.4 68.4 100% 29.75 0.0
15 22:35 S 8 10.00 Fair CLR 68.5 68.5 100% 29.75 0.0
15 22:15 SW 9 10.00 Partly Cloudy SCT003 SCT040 SCT055 68.9 68.9 100% 29.74 0.0
15 21:55 S 14 10.00 Light Drizzle SCT120 68.5 68.5 100% 29.71 0.0 0.02 1.01
15 21:35 S 10 10.00 Light Rain SCT004 SCT025 BKN120 68.9 68.9 100% 29.71 0.0 0.02
15 21:15 SW 12 G 16 10.00 Light Rain SCT004 BKN055 OVC080 69.4 69.4 100% 29.75 0.0 0.01
15 20:55 W 14 10.00 Thunderstorm Rain SCT055 SCT065 OVC075 69.4 69.1 99% 29.74 0.0 0.07
15 20:35 SW 9 10.00 Thunderstorm Light Rain SCT055 BKN065 OVC075 69.8 68.9 97% 29.7 0.0 0.05
15 20:15 W 10 G 16 7.00 Thunderstorm Light Rain in Vicinity SCT026 BKN035 OVC050 69.4 69.4 100% 29.7 0.0 0.04
15 19:55 NW 6 2.50 Thunderstorm Heavy Rain SCT020 OVC026 68.9 67.5 95% 29.71 0.0 0.9
15 19:35 NW 10 G 17 2.50 Thunderstorm Heavy Rain SCT005 BKN019 OVC024 68.9 66.9 93% 29.72 0.0 0.52
15 19:15 N 25 G 40 4.00 Thunderstorm Heavy Rain and Breezy SCT007 SCT011 OVC026 73 68.5 86% 29.68 0.0 0.1
15 18:55 E 7 G 18 10.00 Thunderstorm Rain OVC028 79.3 77 86.5 79.3 93% 84 29.67 0.0 0.11 0.11
15 18:35 E 6 1.50 Thunderstorm Rain SCT024 BKN029 OVC034 81 77 88% 88 29.68 0.0 0.1
15 18:15 SE 7 10.00 Mostly Cloudy SCT038 BKN046 BKN085 82.4 75.9 81% 90 29.7 0.0
15 17:55 SE 5 10.00 Mostly Cloudy SCT085 BKN120 83.7 75.4 76% 92 29.72 0.0
15 17:35 S 8 G 16 10.00 Mostly Cloudy SCT026 BKN120 84.2 74.8 74% 92 29.71 0.0
15 17:15 S 12 10.00 Fair CLR 86 74.8 69% 95 29.72 0.0
15 16:55 S 10 10.00 Partly Cloudy SCT024 85.5 74.7 70% 94 29.73 0.0
15 16:35 S 10 10.00 Partly Cloudy SCT024 86.5 75.2 69% 96 29.75 0.0
15 16:15 S 10 10.00 Fair CLR 86 75 70% 95 29.76 0.0
15 15:55 S 10 10.00 Fair CLR 86.4 74.5 68% 95 29.77 0.0
15 15:35 S 9 10.00 Fair CLR 86 73.8 67% 94 29.77 0.0
15 15:15 S 12 10.00 Fair CLR 86 74.3 68% 94 29.79 0.0
Date Time (cdt) Wind (mph) Vis. (mi.) Weather Sky Cond. Air Dwpt Max. Min. Relative Humidity Wind Chill (°F) Heat Index (°F) altimeter (in) sea level (mb) 1 hr 3 hr 6 hr
6 hour
Temperature (ºF) Pressure Precipitation (in)